{"data":{"norad_id":64604,"intl_designator":"2025-137L","name":"STARLINK-34488","alt_names":[],"object_type":"PAYLOAD","status":"ACTIVE","operator":null,"country":"US","launch_date":"2025-06-25","launch_site_code":"AFETR","launch_vehicle":null,"mission":null,"orbit_class":"UNKNOWN","rcs_meters":null,"size_class":null,"mass_kg":null,"dimensions":null,"purposes":["comms"],"wikipedia_slug":null,"has_3d_model":false,"image_url":null,"decayed_at":null,"tle_current":{"epoch":"2026-09-20T07:16:54.547968Z","epoch_age_seconds":148192,"freshness":"FRESH","line1":"1 64604U 25137L   26263.30340912  .00010764  00000+0  32924-3 0  9999","line2":"2 64604  53.1585 150.3919 0000632  86.9623 273.1452 15.34399057 70548","mean_motion":15.34399057,"eccentricity":6.32e-5,"inclination_deg":53.1585,"raan_deg":150.3919,"arg_perigee_deg":86.9623,"mean_anomaly_deg":273.1452,"bstar":0.00032924,"rev_number":7054,"period_min":93.847815757619,"perigee_km":462.27370172295,"apogee_km":463.13838428359,"semimajor_km":6840.8430430033,"source":"CELESTRAK","updated_at":"2026-09-21T09:00:35.365887Z"}}}